Weather in Medved

Russia / Novgorod Oblast     58°18′06″N   30°30′46″E
temp.,
°C
wind,
m/s
gust,
m/s
humid.,
%
clouds,
%
prec.,
mm/h
press.,
hPa
HPBL,
m
7 march, sun
sun700:00−1wsw81690100 1.1 9971120
03:000wsw81694100 2.1 9931234
06:00−3wnw71474100 2.3 9911345
09:00−5w5126072 2.3 9921390
12:00−4w6117074 0.1 9921516
15:00−3wnw6105887 0.4 9921727
18:00−5wnw397076 0.5 993923
21:00−8wnw398138 0.5 995272
8 march, mon
mon800:00−8nw4127632 0.0 996429
03:00−8nw4118845 0.0 999698
06:00−9nnw51084100 0.1 1002855
09:00−9n51084100 0.1 1005806
12:00−8n5876100 0.1 1008816
15:00−7nnw5773100 0.1 1011929
18:00−8nnw487889 0.0 1013695
21:00−11n388972 0.0 1015407
9 march, tue
tue900:00−13n259530 0.0 1017228
03:00−14nnw249617 0.0 1018143
06:00−14nnw13975 0.0 101984
09:00−13n128932 0.0 1020203
12:00−10n126881 0.0 1020588
15:00−8e116289 0.0 1020735
18:00−11ese3580100 0.0 1019337
21:00−11e4776100 0.1 1020355
10 march, wed
wed1000:00−12e51090100 0.9 1020447
03:00−12e51085100 1.4 1021460
06:00−14e51080100 0.1 1021398
09:00−15e597969 0.1 1023309
12:00−11e596623 0.0 1023390
15:00−8e595955 0.0 1023730
18:00−9e496887 0.0 1023492
21:00−11e4117875 0.0 1023434
11 march, thu
thu1100:00−12e4108156 0.0 1022403
03:00−13e498150 0.0 1021391
06:00−12e489186 0.1 1019406
09:00−11ese379093 0.1 1018386
12:00−8se3685100 0.1 1015446
15:00−3se4882100 0.1 1012741
18:00−1sse41085100 0.1 1008706
21:00−2sse61577100 0.1 1004851